Temperature
16 17 17 17 17 18 19 21 23 22 22 21 21 21 20 18 18 16 14 14 14 14 15 15 14 14 14 14 14 15 15 15 15 15 15 15 15 15 15 15 15 15 15 15 15 15 15 15 15
16 16 17 18 17 18 20 21 22 21 20 20 20 20 19 17 15 14 14 14 14 14 14 14 14 14 14 14 14 14 14 15 14 14 14 14 14 14 14 14 14 14 14 14 14 14 14 14 14
16 16 17 18 18 19 20 21 20 20 20 20 19 18 17 15 14 14 14 14 14 14 14 14 14 14 14 14 14 14 14 14 14 14 14 14 14 14 14 14 14 14 14 14 14 14 14 14 14
16 16 18 17 18 20 21 21 20 20 19 19 19 17 15 14 14 13 13 13 14 14 14 14 14 14 14 14 14 14 14 14 14 14 14 14 14 14 14 14 14 14 14 14 14 14 14 14 14
15 17 17 17 18 20 20 21 20 20 19 19 18 17 14 13 13 13 13 13 13 13 13 13 13 13 13 13 13 13 13 13 13 14 14 14 14 14 14 13 13 14 14 14 14 14 14 14 14
16 17 17 17 19 20 20 20 20 20 19 19 18 16 13 13 13 13 13 13 13 13 13 13 13 13 13 13 13 13 13 13 13 13 13 13 13 13 13 13 13 13 13 13 13 13 13 13 13
16 16 16 18 19 19 20 20 19 19 18 18 18 16 13 12 12 12 12 12 12 12 13 13 13 13 13 13 13 13 13 13 13 13 13 13 13 13 13 13 13 13 13 13 13 13 13 13 13
15 16 17 18 18 18 19 19 18 18 17 16 16 15 13 12 12 12 12 12 12 12 12 12 12 12 12 12 12 12 12 13 13 12 12 12 12 12 12 12 12 12 12 12 12 13 13 13 13
15 15 16 17 18 18 18 18 17 16 16 15 14 14 13 12 12 12 12 12 12 12 12 12 12 12 12 12 12 12 12 12 12 12 12 12 12 12 12 12 12 12 12 12 12 12 12 12 12
15 14 16 17 17 17 17 16 16 16 15 14 14 13 13 12 12 11 11 11 11 11 11 11 11 12 12 12 12 12 12 12 12 12 12 12 12 11 12 12 12 12 12 12 12 12 12 12 12
15 14 15 16 16 16 16 15 15 15 14 15 14 12 12 12 11 11 11 11 11 11 11 11 11 11 11 11 11 11 11 11 11 11 11 11 11 11 11 11 11 11 11 11 11 11 11 11 11
15 15 15 15 14 15 15 15 14 14 14 14 13 13 12 11 11 11 11 10 10 10 10 10 10 11 11 11 11 11 11 11 11 11 11 11 11 11 11 11 11 11 11 11 11 11 11 11 11
14 14 14 14 14 14 14 14 13 13 13 13 12 12 11 11 10 10 10 10 10 10 10 10 10 10 10 10 10 10 10 11 11 11 11 11 11 11 11 10 11 11 11 10 10 10 10 10 10
14 14 14 13 13 13 13 13 13 13 12 12 12 11 11 11 10 10 10 10 10 10 10 10 10 10 10 10 10 10 10 10 10 10 10 10 10 10 10 10 10 10 10 10 10 10 10 10 10
13 13 13 13 13 13 13 12 12 12 12 12 11 11 11 10 10 10 10 10 9 9 9 9 9 9 9 9 9 9 9 10 10 10 10 10 10 10 10 10 10 10 10 9 9 9 9 9 9
13 12 12 13 13 13 12 11 12 13 12 12 12 11 10 10 10 10 9 9 9 9 9 9 9 9 9 9 9 9 9 9 9 9 9 9 9 9 9 9 9 9 9 9 9 9 9 9 9
12 11 12 12 13 13 11 11 12 12 12 12 11 11 10 10 9 9 9 9 9 9 8 9 9 8 8 8 8 8 8 8 8 8 9 9 9 9 9 9 9 9 8 8 8 8 8 8 8
11 12 12 12 12 12 11 11 11 12 12 12 11 11 10 10 9 9 9 9 8 8 8 8 8 8 8 8 8 7 8 8 8 8 8 8 8 8 8 8 8 8 8 8 8 8 8 8 7
12 12 11 12 12 11 11 11 11 12 11 11 11 11 10 10 9 9 8 8 8 8 8 8 8 8 7 7 7 7 7 7 7 7 8 8 8 8 7 7 7 7 7 7 7 7 7 7 7
11 10 11 11 11 11 10 10 11 11 11 11 11 11 10 10 9 9 8 8 8 7 7 7 7 7 7 7 6 6 6 6 7 7 7 7 7 7 7 7 7 7 7 7 6 6 6 6 6
10 10 10 10 10 10 9 9 10 11 11 11 11 11 10 10 9 8 8 7 7 7 7 7 7 7 6 6 6 6 6 6 6 6 6 6 6 6 6 6 6 6 6 6 6 6 5 5 5
9 9 10 9 8 8 9 7 9 10 10 10 10 10 10 10 9 8 8 7 7 7 7 6 6 6 6 6 6 6 6 6 6 6 6 6 6 5 5 6 6 5 5 5 5 5 5 4 4
8 9 9 9 8 7 8 7 8 10 9 10 10 10 10 9 9 8 8 7 7 7 6 6 6 6 6 5 5 5 5 5 5 5 5 5 5 5 5 5 5 5 5 4 4 4 4 4 4
8 8 8 8 7 6 7 7 8 9 10 10 9 10 9 9 8 8 7 7 6 6 6 6 6 5 5 5 5 5 5 5 5 5 5 5 4 4 4 4 4 4 4 4 4 4 4 3 3
7 6 6 6 5 6 8 8 7 9 9 9 9 9 9 8 7 7 7 6 6 6 5 5 5 5 5 4 4 4 4 4 4 4 4 4 4 4 4 4 4 4 4 4 4 3 3 3 3
6 6 6 6 6 7 8 7 8 8 8 9 9 8 8 7 7 6 6 6 5 5 5 5 5 4 4 4 4 4 4 4 4 4 4 3 4 4 4 4 4 3 3 3 3 3 3 3 2
6 6 7 6 6 5 7 8 8 8 8 7 8 7 7 6 6 6 5 5 5 5 4 4 4 4 4 4 4 3 3 3 3 3 3 3 3 3 3 3 3 3 3 3 3 2 2 2 2
6 6 5 5 5 6 7 7 7 7 7 7 6 6 6 6 6 5 5 5 4 4 4 4 4 4 4 3 3 3 3 3 3 3 3 3 3 3 3 3 3 2 2 2 2 2 2 2 1
5 5 5 5 5 5 6 6 7 7 7 6 6 6 6 6 5 5 4 4 4 4 4 4 3 3 3 3 3 3 3 3 2 2 2 2 2 2 2 2 2 2 2 2 2 1 1 1 1
5 5 4 4 4 5 5 5 6 6 6 6 6 6 6 5 5 4 4 4 3 3 3 3 3 3 3 3 3 3 2 2 2 2 2 2 2 2 1 1 2 2 1 1 1 1 1 1 0
Wind_Speed
14 12 6 3 3 4 6 4 1 3 4 6 7 5 6 7 6 7 3 6 6 7 9 8 8 8 9 10 11 11 11 11 11 12 12 12 12 12 12 12 13 13 13 13 13 13 13 14 13
11 8 4 3 4 5 5 5 2 4 6 5 4 3 4 6 7 6 4 5 5 8 8 8 9 9 9 10 11 11 11 11 11 11 12 12 12 12 12 12 12 13 13 13 13 13 13 13 12
9 6 3 3 4 5 3 3 7 8 7 3 2 4 4 5 5 4 3 3 6 8 10 9 10 9 9 10 11 11 11 10 11 11 12 11 11 11 12 12 12 13 13 12 12 13 13 12 12
4 3 4 4 8 5 2 3 7 6 5 2 3 4 5 6 4 4 4 4 7 8 10 9 9 9 9 10 11 11 10 10 11 11 12 11 11 11 12 12 12 12 12 12 12 12 12 11 11
3 3 5 6 8 4 2 3 5 3 4 3 3 3 5 5 7 7 5 5 7 8 10 9 9 9 9 9 10 10 10 10 11 11 11 11 11 11 11 11 11 11 12 11 11 11 11 10 10
3 4 5 8 8 5 3 2 2 2 3 2 3 3 5 6 6 5 5 6 8 8 8 9 9 9 9 9 10 10 10 10 11 11 11 11 11 11 11 10 10 11 11 11 10 10 9 9 9
4 4 7 8 6 4 2 2 1 2 2 1 1 3 5 6 5 5 5 6 8 8 8 7 7 8 9 9 9 10 11 11 11 11 10 10 10 10 10 10 10 10 10 10 10 9 9 8 8
3 4 7 7 7 4 1 2 3 3 2 3 3 2 5 6 6 5 6 6 7 8 7 6 6 6 7 8 9 9 10 11 11 10 10 9 10 10 9 10 9 9 9 9 9 9 8 7 7
3 4 6 5 4 1 2 1 3 3 3 3 3 4 7 9 7 5 5 6 6 7 6 6 5 5 6 7 9 9 10 10 10 9 9 8 8 8 8 8 8 8 8 8 8 7 7 6 5
4 5 5 3 4 1 1 1 1 2 2 2 3 6 8 8 6 5 4 4 5 5 4 5 5 5 6 6 7 7 7 7 8 8 7 6 7 7 7 7 8 7 7 7 6 5 5 4 4
3 4 3 3 4 3 1 1 1 3 3 3 4 6 8 6 5 4 3 4 4 4 4 4 4 4 4 4 5 5 5 6 7 7 7 7 7 6 6 6 6 6 5 4 3 3 3 4 4
4 3 3 3 4 2 1 1 3 3 2 2 4 6 7 6 4 3 3 4 5 5 4 3 4 4 4 4 4 5 4 5 6 7 7 6 5 4 4 4 4 4 4 3 3 3 4 4 5
7 5 3 2 2 2 3 3 3 4 2 2 4 5 5 5 4 4 4 4 5 5 4 3 3 4 3 3 3 4 4 4 6 6 6 5 4 3 4 4 4 4 4 4 3 3 3 3 4
2 3 4 3 3 3 4 5 5 5 2 2 4 5 5 5 5 4 4 4 3 4 4 3 4 3 4 3 2 3 4 5 6 6 6 6 5 4 3 3 3 4 4 4 4 3 3 3 3
3 4 5 6 5 4 3 6 8 7 5 5 5 5 5 4 4 4 5 4 3 4 4 4 4 4 4 3 2 3 4 6 5 5 6 6 6 5 4 3 2 3 4 4 3 3 3 3 3
5 6 6 5 6 5 4 7 6 6 7 6 6 5 5 5 4 4 5 5 4 4 5 4 3 4 4 3 2 3 5 5 5 5 6 5 5 5 4 3 2 4 4 3 2 1 2 2 3
6 6 7 4 5 4 6 6 3 4 5 6 6 5 6 5 5 5 5 5 5 5 5 5 4 4 4 3 2 3 4 4 5 5 5 4 5 5 5 3 3 4 3 3 2 2 2 2 2
4 6 6 5 5 5 7 8 5 5 6 7 6 6 6 6 5 5 5 5 6 5 5 5 5 4 4 3 2 2 3 3 4 5 5 5 5 5 5 4 4 4 2 2 2 3 2 2 2
6 6 6 5 1 4 8 9 8 6 7 7 7 7 7 6 5 5 6 6 5 5 5 5 5 4 4 2 2 2 1 1 2 3 4 4 4 4 4 3 2 2 2 2 2 2 2 2 2
6 7 7 3 1 2 6 10 7 7 8 8 8 7 7 6 5 5 6 5 5 5 5 5 5 5 4 3 2 1 1 1 2 2 3 3 3 3 3 3 2 2 1 2 2 2 1 2 2
6 6 6 5 4 4 5 8 8 7 7 7 6 6 6 7 7 6 6 6 5 5 5 4 4 4 4 4 3 2 2 1 1 2 1 2 2 2 2 2 2 1 1 0 1 1 2 1 2
5 3 4 4 3 4 3 5 5 5 6 8 8 7 6 7 7 6 5 5 5 5 4 4 4 4 4 4 4 4 3 2 2 2 2 1 2 2 2 2 1 1 1 0 0 1 1 1 1
2 2 4 4 5 5 5 5 6 5 6 6 6 6 5 6 6 6 5 5 5 5 4 4 4 4 4 4 4 4 3 2 2 2 2 2 1 2 2 1 1 1 0 1 0 0 0 0 1
1 2 3 4 2 5 7 7 5 4 5 4 4 4 4 5 4 4 5 5 5 5 4 4 4 4 4 4 4 4 4 3 3 2 2 2 1 1 1 1 1 1 1 1 1 1 1 2 1
2 1 1 2 3 6 5 5 5 2 1 3 3 3 4 4 4 4 5 5 5 5 4 4 5 4 4 4 4 4 4 4 4 4 3 2 2 1 2 1 1 1 1 2 2 2 2 2 2
5 4 3 3 3 2 2 6 4 1 3 4 4 4 4 4 3 3 4 5 4 5 4 4 4 4 4 4 4 3 3 2 2 3 3 3 3 2 2 2 2 2 2 2 2 2 2 2 2
3 5 2 2 3 3 5 4 2 2 2 3 3 4 4 3 3 3 3 4 4 4 4 4 4 3 4 4 3 3 3 3 2 2 2 2 2 2 3 3 2 2 2 2 2 2 3 2 2
3 1 1 3 3 4 5 5 4 4 4 4 3 3 3 3 3 2 2 3 3 3 3 3 4 3 3 3 3 3 3 3 2 2 2 2 2 2 3 3 2 2 2 2 2 2 3 2 2
4 3 3 3 4 3 4 3 1 2 4 4 3 3 3 3 3 2 2 3 3 3 2 2 3 3 3 3 3 2 3 2 3 3 3 3 2 2 2 3 2 2 3 2 2 3 3 3 2
3 4 5 4 4 4 3 4 3 4 4 4 2 2 2 2 2 2 1 2 2 2 2 2 2 2 2 2 2 2 3 3 3 3 3 3 3 2 2 2 3 3 3 3 3 3 3 3 3
Wind_Direction
303 284 264 259 246 229 241 242 232 80 63 45 31 27 42 34 41 104 102 55 64 89 99 99 92 93 96 96 93 90 88 85 84 84 84 81 78 77 76 75 73 74 75 74 72 73 77 77 75
297 290 269 242 244 232 233 211 149 81 80 69 43 30 65 70 67 91 69 46 71 87 95 98 97 95 95 96 95 93 90 87 85 84 83 81 79 76 74 73 72 73 74 74 74 73 74 75 73
280 269 255 233 237 241 265 76 85 80 85 91 78 31 38 64 73 78 57 59 76 82 86 91 99 97 96 97 97 94 91 90 89 88 86 80 78 75 76 75 73 73 72 74 73 72 72 70 69
278 248 243 244 246 249 265 89 90 98 92 74 94 87 74 54 67 76 63 64 77 75 85 89 93 97 99 97 98 96 93 91 91 92 88 83 80 77 76 74 73 72 72 74 74 71 68 67 64
245 250 234 236 243 249 284 83 101 127 134 141 130 97 86 67 78 81 75 65 74 72 78 86 89 96 98 98 98 97 94 91 91 90 88 85 82 79 76 76 74 73 71 71 72 71 67 64 63
251 244 238 233 234 220 215 140 136 164 139 139 123 111 98 97 87 86 81 71 73 71 71 83 79 93 96 96 98 98 96 93 92 90 88 86 82 80 78 76 76 74 71 68 69 69 67 63 60
262 255 252 250 239 228 192 118 155 182 141 95 56 112 117 110 100 99 93 79 78 74 68 69 77 93 99 100 101 101 99 95 93 91 90 89 85 78 76 72 74 75 73 70 68 67 67 64 58
282 276 251 246 246 240 136 96 65 23 50 45 20 106 128 125 119 110 99 90 81 72 66 62 65 86 94 99 103 102 100 97 94 90 89 90 87 81 76 70 72 73 73 71 66 62 60 58 56
263 250 246 249 251 237 105 98 93 52 76 72 48 48 103 120 125 113 100 88 78 67 57 59 58 74 90 95 97 97 97 95 94 90 87 86 84 80 75 74 74 74 74 73 66 60 56 51 49
218 245 249 299 332 349 88 65 102 158 172 165 117 96 109 121 128 125 116 107 92 79 58 50 51 63 81 95 98 94 94 94 91 87 81 80 79 78 74 75 77 77 73 71 64 53 49 37 34
222 245 279 314 355 1 330 310 278 232 230 215 159 138 133 129 132 136 132 121 111 102 78 57 48 59 68 82 99 93 96 94 91 86 73 71 76 73 73 69 71 69 67 65 57 40 31 28 23
245 259 274 297 353 348 287 274 287 270 278 1 105 128 132 138 149 152 140 122 116 107 95 73 60 55 61 65 84 91 85 85 83 80 75 67 69 66 64 62 60 55 51 38 24 28 31 24 16
237 246 263 305 329 297 266 242 255 256 256 77 108 127 145 156 159 149 133 123 122 118 108 97 74 68 63 63 70 85 80 79 86 84 78 71 64 65 61 55 52 45 43 31 20 28 25 20 20
266 251 243 232 231 246 243 244 235 231 199 167 158 163 170 168 164 153 138 133 129 124 122 111 93 80 76 71 71 77 81 81 84 81 77 76 68 61 58 59 50 39 32 26 27 28 28 21 21
264 254 245 224 203 209 231 246 231 221 201 205 193 176 168 165 163 159 151 145 138 126 121 113 110 90 83 71 73 84 85 85 83 81 78 74 73 68 62 60 54 36 27 31 33 32 32 20 14
232 235 235 211 199 188 213 249 227 191 194 209 200 182 174 170 171 162 150 142 134 129 127 124 112 106 101 88 78 87 87 86 85 86 84 75 73 71 67 61 49 32 28 32 33 34 24 15 8
215 233 235 213 198 192 212 253 243 187 200 212 204 192 184 180 177 165 152 143 137 138 139 132 126 120 115 105 92 93 93 94 93 90 85 75 74 73 69 60 49 42 32 25 21 25 28 20 4
229 238 248 230 193 213 229 247 245 228 220 220 214 199 192 187 181 157 148 142 141 141 141 139 133 125 116 112 98 90 88 89 91 89 89 80 72 71 68 65 52 45 48 30 30 25 18 18 355
284 282 273 274 194 226 243 252 246 226 222 219 214 202 192 185 165 149 145 145 144 141 144 143 139 135 130 130 132 124 110 103 94 84 90 89 79 70 69 68 65 55 54 41 42 41 25 5 1
271 271 278 288 150 263 269 267 253 233 224 215 210 202 191 180 168 160 153 153 153 150 151 148 152 151 144 144 144 148 137 133 114 91 89 91 84 76 75 74 70 64 69 49 38 46 36 1 16
256 255 269 285 313 263 273 275 235 228 220 213 214 206 189 182 181 176 169 167 160 156 162 160 160 152 147 137 127 117 97 85 101 123 122 95 95 92 77 71 76 72 78 105 43 59 60 9 332
263 294 287 285 286 266 231 281 253 221 211 210 206 206 199 185 176 172 173 167 160 155 154 157 159 156 153 145 152 165 167 175 191 162 150 130 120 107 91 78 69 91 71 102 351 40 35 93 297
254 307 290 273 257 276 240 248 265 214 221 214 198 193 187 175 170 171 168 163 155 146 152 162 160 164 158 163 169 176 178 167 144 142 145 143 135 115 104 106 89 106 113 134 113 18 339 248 240
260 281 271 262 247 259 228 216 268 222 211 188 170 165 155 151 153 158 155 144 143 141 150 162 161 172 171 174 179 186 183 168 157 167 169 166 163 142 151 155 130 156 164 173 200 213 243 249 257
199 163 251 227 220 238 214 212 245 243 83 131 138 146 139 131 135 137 143 142 145 147 154 162 163 170 174 176 187 192 184 179 177 180 179 179 184 188 195 173 173 196 216 212 205 214 231 239 243
200 194 201 234 239 260 219 227 233 158 99 85 106 115 113 126 138 139 148 149 154 159 167 169 175 177 176 180 189 185 177 177 182 181 180 190 196 197 190 189 203 214 228 240 212 220 230 236 244
206 216 242 290 291 275 240 228 226 172 144 142 135 138 151 150 138 137 140 144 155 163 173 175 179 182 181 183 182 181 177 181 189 189 183 194 190 192 185 200 212 221 227 229 221 223 235 235 239
246 243 202 206 241 259 247 232 227 185 187 172 155 148 153 147 141 143 142 144 152 159 170 171 174 178 179 175 184 189 185 186 185 184 199 203 200 192 185 199 210 213 225 228 226 230 240 238 247
197 206 213 233 247 244 268 264 8 132 140 139 142 143 136 143 149 151 160 155 153 145 152 163 169 171 172 176 183 182 186 190 188 195 204 199 195 193 201 202 212 217 223 227 235 244 240 237 253
226 216 191 207 246 235 255 271 16 64 75 94 107 116 120 117 138 138 135 135 140 153 162 158 168 177 180 178 185 190 186 189 197 203 204 194 197 202 208 211 218 225 230 230 232 248 251 236 242
Height
1498 1499 1500 1502 1504 1504 1500 1490 1483 1485 1488 1492 1494 1494 1497 1502 1507 1517 1517 1515 1515 1516 1517 1518 1518 1519 1520 1521 1522 1523 1524 1524 1525 1526 1526 1527 1527 1528 1528 1529 1529 1530 1530 1531 1531 1531 1531 1531 1532
1497 1499 1502 1502 1504 1506 1497 1486 1486 1487 1491 1494 1496 1498 1500 1505 1509 1513 1514 1515 1515 1516 1517 1518 1519 1519 1520 1521 1522 1523 1524 1525 1525 1526 1527 1527 1528 1529 1529 1530 1530 1531 1531 1531 1532 1532 1532 1532 1533
1498 1499 1502 1499 1499 1499 1493 1485 1487 1490 1493 1496 1499 1501 1504 1509 1511 1512 1514 1515 1516 1516 1517 1518 1519 1520 1520 1521 1522 1523 1524 1525 1526 1527 1527 1528 1529 1530 1530 1530 1531 1531 1532 1532 1532 1533 1533 1533 1533
1499 1500 1500 1500 1497 1490 1487 1486 1488 1492 1495 1498 1500 1503 1507 1511 1511 1512 1513 1514 1515 1516 1517 1518 1519 1520 1521 1521 1522 1523 1525 1526 1526 1527 1528 1529 1529 1530 1530 1531 1531 1532 1532 1533 1533 1534 1534 1534 1534
1499 1499 1499 1498 1494 1488 1486 1486 1489 1492 1496 1499 1500 1504 1509 1511 1511 1512 1513 1514 1515 1516 1516 1518 1519 1520 1521 1522 1522 1524 1525 1526 1526 1527 1528 1529 1530 1530 1531 1532 1532 1533 1533 1533 1534 1534 1534 1534 1535
1499 1497 1499 1498 1491 1487 1486 1487 1490 1493 1496 1499 1500 1504 1510 1511 1511 1512 1513 1514 1515 1515 1516 1517 1519 1520 1521 1522 1523 1523 1525 1526 1526 1527 1528 1529 1530 1530 1531 1532 1532 1533 1533 1533 1534 1534 1534 1535 1535
1499 1496 1496 1491 1489 1488 1487 1488 1491 1493 1496 1499 1501 1504 1509 1511 1511 1512 1513 1514 1515 1515 1516 1517 1518 1519 1520 1522 1523 1524 1524 1526 1527 1527 1528 1529 1530 1531 1531 1532 1532 1533 1533 1534 1534 1534 1534 1535 1535
1496 1496 1492 1490 1489 1488 1488 1490 1493 1495 1498 1500 1501 1504 1508 1510 1511 1512 1513 1514 1514 1515 1515 1516 1517 1519 1520 1521 1522 1523 1524 1525 1526 1527 1528 1529 1530 1530 1531 1532 1532 1533 1533 1533 1534 1534 1534 1534 1535
1495 1497 1493 1489 1489 1489 1489 1491 1495 1497 1499 1501 1502 1504 1506 1508 1510 1512 1513 1513 1514 1514 1515 1516 1517 1518 1519 1520 1521 1523 1524 1525 1526 1527 1528 1528 1529 1530 1530 1531 1532 1532 1532 1533 1533 1533 1534 1534 1534
1494 1495 1490 1488 1488 1489 1490 1492 1495 1498 1499 1501 1503 1504 1505 1507 1509 1510 1511 1512 1513 1514 1515 1515 1516 1517 1518 1519 1520 1522 1523 1524 1525 1526 1527 1527 1528 1529 1530 1530 1531 1531 1532 1532 1532 1533 1533 1533 1534
1490 1491 1489 1490 1490 1490 1492 1494 1496 1497 1499 1500 1501 1503 1504 1506 1508 1509 1510 1511 1512 1513 1514 1514 1515 1516 1517 1518 1519 1520 1522 1523 1524 1525 1526 1527 1527 1528 1529 1529 1530 1530 1530 1531 1531 1532 1532 1532 1533
1489 1489 1490 1491 1491 1492 1493 1494 1496 1497 1499 1499 1500 1501 1503 1504 1506 1508 1509 1510 1511 1511 1512 1513 1514 1515 1516 1517 1518 1519 1520 1521 1523 1524 1525 1526 1526 1527 1527 1528 1528 1529 1529 1530 1530 1531 1531 1531 1531
1489 1489 1490 1491 1492 1493 1494 1495 1497 1497 1498 1498 1499 1501 1502 1503 1505 1507 1508 1509 1509 1510 1511 1512 1513 1514 1515 1516 1517 1518 1519 1520 1521 1522 1523 1524 1525 1526 1526 1527 1527 1528 1528 1528 1529 1529 1529 1530 1530
1488 1489 1490 1490 1492 1493 1494 1495 1496 1495 1496 1497 1499 1499 1501 1502 1504 1505 1506 1507 1508 1508 1509 1510 1511 1512 1513 1514 1516 1516 1517 1518 1519 1521 1522 1522 1523 1524 1525 1525 1526 1526 1527 1527 1527 1527 1528 1528 1528
1489 1490 1489 1488 1490 1492 1494 1494 1492 1492 1494 1495 1497 1498 1499 1501 1502 1503 1503 1504 1506 1506 1507 1508 1509 1510 1511 1512 1514 1515 1516 1516 1518 1519 1520 1521 1522 1523 1523 1524 1524 1525 1525 1525 1526 1526 1526 1526 1526
1488 1489 1490 1486 1487 1489 1495 1494 1488 1489 1491 1492 1494 1496 1497 1498 1500 1501 1502 1502 1503 1504 1505 1506 1507 1508 1509 1510 1512 1512 1513 1514 1516 1517 1518 1519 1520 1521 1521 1522 1522 1523 1523 1523 1523 1524 1524 1524 1523
1488 1489 1487 1486 1485 1486 1490 1490 1486 1487 1488 1489 1491 1493 1494 1496 1498 1499 1499 1500 1501 1502 1503 1504 1505 1506 1507 1508 1509 1510 1511 1512 1514 1515 1516 1517 1518 1518 1519 1519 1520 1521 1521 1521 1521 1521 1521 1521 1521
1487 1486 1483 1484 1483 1485 1487 1487 1485 1486 1486 1487 1488 1490 1492 1493 1495 1496 1497 1498 1499 1500 1501 1502 1503 1504 1505 1506 1507 1508 1508 1510 1511 1512 1514 1515 1515 1516 1517 1517 1518 1518 1519 1519 1519 1519 1519 1519 1519
1483 1483 1484 1481 1481 1484 1485 1484 1483 1483 1484 1484 1485 1487 1488 1490 1493 1494 1495 1496 1497 1498 1499 1500 1500 1501 1502 1503 1504 1505 1506 1507 1509 1510 1511 1512 1513 1514 1514 1515 1515 1516 1516 1517 1517 1517 1517 1517 1517
1484 1486 1485 1483 1481 1484 1484 1482 1479 1478 1479 1480 1482 1483 1485 1488 1490 1491 1493 1494 1494 1495 1496 1497 1498 1499 1500 1501 1503 1504 1504 1505 1506 1507 1508 1510 1510 1511 1512 1513 1513 1514 1514 1514 1515 1515 1515 1515 1515
1485 1487 1486 1486 1484 1483 1485 1483 1477 1473 1475 1477 1478 1480 1482 1484 1486 1488 1489 1491 1492 1493 1494 1495 1496 1496 1498 1499 1501 1502 1503 1503 1504 1505 1506 1507 1508 1509 1510 1510 1511 1511 1512 1512 1512 1513 1513 1513 1513
1487 1485 1485 1486 1491 1491 1486 1492 1476 1471 1472 1473 1475 1476 1478 1480 1482 1484 1486 1488 1489 1490 1492 1493 1493 1494 1495 1497 1498 1499 1499 1500 1501 1502 1503 1504 1506 1506 1507 1508 1508 1509 1509 1510 1510 1510 1511 1511 1511
1486 1486 1486 1487 1490 1492 1487 1492 1479 1470 1472 1471 1471 1473 1475 1477 1479 1481 1483 1485 1487 1488 1489 1490 1491 1492 1493 1494 1495 1496 1497 1498 1499 1500 1500 1502 1503 1503 1505 1505 1506 1506 1507 1507 1508 1508 1508 1508 1508
1486 1487 1487 1488 1491 1498 1486 1488 1480 1471 1467 1467 1469 1471 1473 1475 1477 1479 1481 1482 1484 1485 1487 1488 1488 1489 1491 1491 1492 1493 1494 1495 1496 1497 1497 1498 1499 1500 1502 1503 1503 1503 1504 1504 1504 1505 1505 1505 1505
1488 1493 1497 1497 1498 1493 1477 1481 1478 1467 1464 1465 1468 1469 1471 1473 1475 1477 1478 1479 1481 1482 1484 1485 1486 1487 1488 1489 1490 1491 1492 1493 1493 1494 1494 1495 1496 1497 1498 1499 1500 1500 1501 1501 1501 1502 1502 1502 1502
1488 1490 1497 1497 1490 1482 1478 1479 1472 1465 1465 1465 1467 1469 1471 1473 1474 1476 1477 1477 1479 1480 1481 1482 1483 1484 1485 1486 1487 1488 1489 1490 1491 1491 1492 1493 1494 1494 1495 1496 1497 1497 1497 1497 1498 1499 1499 1499 1499
1486 1489 1487 1493 1490 1491 1479 1471 1468 1465 1465 1466 1467 1469 1471 1472 1474 1475 1476 1477 1477 1478 1479 1480 1481 1482 1483 1483 1484 1485 1486 1487 1488 1489 1489 1490 1491 1492 1492 1493 1493 1493 1494 1494 1494 1495 1495 1495 1495
1486 1487 1491 1494 1495 1489 1475 1470 1470 1466 1465 1466 1467 1468 1470 1472 1473 1474 1475 1476 1477 1477 1478 1478 1479 1480 1480 1481 1482 1482 1483 1484 1485 1486 1487 1487 1488 1488 1488 1489 1489 1490 1490 1491 1491 1491 1491 1492 1491
1487 1489 1489 1490 1488 1488 1483 1476 1464 1463 1463 1465 1466 1468 1469 1471 1472 1473 1474 1474 1475 1476 1476 1477 1477 1477 1478 1478 1479 1479 1480 1481 1482 1483 1484 1484 1484 1485 1485 1485 1486 1486 1487 1487 1487 1487 1487 1487 1487
1484 1484 1488 1493 1489 1485 1485 1480 1465 1464 1463 1464 1466 1468 1469 1470 1471 1472 1472 1473 1473 1474 1474 1474 1475 1475 1475 1476 1476 1476 1477 1478 1479 1479 1480 1481 1481 1481 1482 1482 1482 1483 1483 1483 1483 1483 1483 1483 1483